YMA7582 KRNO-KPDX

Flight info

Callsign YMA7582
Flight time 1h 5m
Altitude 32000
Route PVINE5 HALLE WNDEL J92 LMT GALLO TMBRS4
Aircraft B738/M-SDE2E3FGHIRWXY/LB1

Departure

Time 2026-05-07 09:15
Airport Reno Tahoe International Airport (KRNO)

Arrival

Time 2026-05-07 10:20
Airport Portland International Airport (KPDX)
Time Latitude Longitude Altitude Speed Heading
2026-05-07 08:55 39.50689 -119.77224 4422 ft 0 kts 282°
2026-05-07 08:59 39.50689 -119.77223 4422 ft 0 kts 282°
2026-05-07 09:05 39.50688 -119.77218 4422 ft 2 kts 282°
2026-05-07 09:06 39.50686 -119.77206 4422 ft 2 kts 279°
2026-05-07 09:06 39.50687 -119.77187 4422 ft 2 kts 251°
2026-05-07 09:06 39.50693 -119.77169 4422 ft 2 kts 229°
2026-05-07 09:06 39.50705 -119.77157 4421 ft 2 kts 207°
2026-05-07 09:07 39.50719 -119.77151 4421 ft 1 kts 185°
2026-05-07 09:07 39.50726 -119.77151 4421 ft 1 kts 176°
2026-05-07 09:07 39.50729 -119.77151 4421 ft 0 kts 179°
2026-05-07 09:09 39.50727 -119.77151 4422 ft 1 kts 179°
2026-05-07 09:09 39.50692 -119.77150 4422 ft 8 kts 179°
2026-05-07 09:09 39.50623 -119.77150 4421 ft 12 kts 180°
2026-05-07 09:10 39.50518 -119.77152 4419 ft 17 kts 180°
2026-05-07 09:10 39.50392 -119.77151 4419 ft 17 kts 181°
2026-05-07 09:10 39.50269 -119.77152 4418 ft 17 kts 179°
2026-05-07 09:10 39.50149 -119.77151 4418 ft 17 kts 179°
2026-05-07 09:11 39.50030 -119.77151 4418 ft 16 kts 181°
2026-05-07 09:11 39.49914 -119.77153 4418 ft 16 kts 180°
2026-05-07 09:11 39.49801 -119.77153 4419 ft 16 kts 179°
2026-05-07 09:11 39.49690 -119.77154 4419 ft 15 kts 181°
2026-05-07 09:12 39.49582 -119.77155 4419 ft 15 kts 180°
2026-05-07 09:12 39.49476 -119.77154 4420 ft 15 kts 179°
2026-05-07 09:12 39.49371 -119.77153 4420 ft 15 kts 179°
2026-05-07 09:12 39.49267 -119.77154 4420 ft 14 kts 180°
2026-05-07 09:13 39.49164 -119.77155 4420 ft 14 kts 180°
2026-05-07 09:13 39.49061 -119.77156 4421 ft 14 kts 179°
2026-05-07 09:13 39.48961 -119.77151 4421 ft 14 kts 162°
2026-05-07 09:13 39.48926 -119.77046 4421 ft 13 kts 89°
2026-05-07 09:14 39.48949 -119.76939 4421 ft 12 kts 24°
2026-05-07 09:14 39.49066 -119.76929 4421 ft 33 kts
2026-05-07 09:14 39.49534 -119.76929 4417 ft 99 kts 360°
2026-05-07 09:14 39.50428 -119.76926 4418 ft 155 kts 359°
2026-05-07 09:15 39.51617 -119.76939 4741 ft 174 kts 360°
2026-05-07 09:15 39.52829 -119.76937 5403 ft 177 kts
2026-05-07 09:15 39.54061 -119.76889 6030 ft 183 kts
2026-05-07 09:15 39.55368 -119.76820 6471 ft 194 kts
2026-05-07 09:16 39.56743 -119.76770 6890 ft 208 kts 360°
2026-05-07 09:16 39.58250 -119.76728 7283 ft 226 kts
2026-05-07 09:16 39.59904 -119.76676 7714 ft 243 kts
2026-05-07 09:16 39.61620 -119.76616 8206 ft 256 kts
2026-05-07 09:17 39.63448 -119.76553 8695 ft 269 kts
2026-05-07 09:17 39.65344 -119.76726 9180 ft 282 kts 347°
2026-05-07 09:17 39.67192 -119.77663 9848 ft 288 kts 333°
2026-05-07 09:17 39.68931 -119.78938 10491 ft 295 kts 330°
2026-05-07 09:18 39.70764 -119.80328 10960 ft 308 kts 331°
2026-05-07 09:18 39.72655 -119.81710 11414 ft 321 kts 332°
2026-05-07 09:18 39.74671 -119.83128 11828 ft 335 kts 333°
2026-05-07 09:18 39.76752 -119.84566 12252 ft 348 kts 333°
2026-05-07 09:19 39.78923 -119.86059 12730 ft 358 kts 333°
2026-05-07 09:19 39.81131 -119.87579 13382 ft 363 kts 334°
2026-05-07 09:19 39.83364 -119.89120 14094 ft 366 kts 334°
2026-05-07 09:19 39.85627 -119.90686 14816 ft 370 kts 334°
2026-05-07 09:20 39.87879 -119.92247 15519 ft 372 kts 334°
2026-05-07 09:20 39.90181 -119.93842 16180 ft 376 kts 334°
2026-05-07 09:20 39.92493 -119.95453 16866 ft 378 kts 334°
2026-05-07 09:20 39.94776 -119.97123 17520 ft 381 kts 332°
2026-05-07 09:21 39.97085 -119.98888 18175 ft 384 kts 332°
2026-05-07 09:21 39.99361 -120.00659 18785 ft 387 kts 332°
2026-05-07 09:21 40.01693 -120.02478 19406 ft 390 kts 331°
2026-05-07 09:21 40.04002 -120.04271 20039 ft 392 kts 332°
2026-05-07 09:22 40.06360 -120.06093 20625 ft 395 kts 332°
2026-05-07 09:22 40.08723 -120.07914 21216 ft 398 kts 332°
2026-05-07 09:22 40.11135 -120.09771 21788 ft 401 kts 332°
2026-05-07 09:22 40.13524 -120.11610 22363 ft 403 kts 331°
2026-05-07 09:23 40.15939 -120.13470 22941 ft 405 kts 331°
2026-05-07 09:23 40.18400 -120.15366 23466 ft 409 kts 331°
2026-05-07 09:23 40.20830 -120.17241 23975 ft 412 kts 331°
2026-05-07 09:23 40.23313 -120.19157 24482 ft 415 kts 331°
2026-05-07 09:24 40.25817 -120.21092 24965 ft 418 kts 331°
2026-05-07 09:24 40.28287 -120.23002 25453 ft 420 kts 331°
2026-05-07 09:24 40.30819 -120.24963 25916 ft 422 kts 331°
2026-05-07 09:24 40.33350 -120.26925 26358 ft 425 kts 331°
2026-05-07 09:25 40.35899 -120.28902 26824 ft 427 kts 331°
2026-05-07 09:25 40.38432 -120.30869 27250 ft 429 kts 331°
2026-05-07 09:25 40.41031 -120.32888 27654 ft 432 kts 331°
2026-05-07 09:25 40.43602 -120.34888 28107 ft 434 kts 331°
2026-05-07 09:26 40.46185 -120.36899 28524 ft 436 kts 331°
2026-05-07 09:26 40.48803 -120.38939 29038 ft 435 kts 330°
2026-05-07 09:26 40.51375 -120.40946 29629 ft 432 kts 331°
2026-05-07 09:26 40.53965 -120.42970 30191 ft 430 kts 330°
2026-05-07 09:27 40.56518 -120.44965 30715 ft 428 kts 330°
2026-05-07 09:27 40.59071 -120.46963 31187 ft 427 kts 330°
2026-05-07 09:27 40.64131 -120.50928 32109 ft 424 kts 330°
2026-05-07 09:28 40.66667 -120.52917 32284 ft 428 kts 330°
2026-05-07 09:28 40.71851 -120.56986 32283 ft 436 kts 330°
2026-05-07 09:29 40.77083 -120.61102 32284 ft 436 kts 330°
2026-05-07 09:29 40.82259 -120.65183 32287 ft 435 kts 329°
2026-05-07 09:30 40.87456 -120.69286 32288 ft 435 kts 329°
2026-05-07 09:30 40.92645 -120.73392 32287 ft 434 kts 329°
2026-05-07 09:31 40.97792 -120.77472 32287 ft 433 kts 329°
2026-05-07 09:31 41.02972 -120.81586 32286 ft 434 kts 329°
2026-05-07 09:32 41.08122 -120.85683 32285 ft 435 kts 329°
2026-05-07 09:32 41.13329 -120.89833 32283 ft 435 kts 329°
2026-05-07 09:33 41.18499 -120.93961 32276 ft 434 kts 329°
2026-05-07 09:33 41.23643 -120.98077 32273 ft 434 kts 329°
2026-05-07 09:34 41.28815 -121.02222 32267 ft 433 kts 329°
2026-05-07 09:34 41.33953 -121.06347 32266 ft 434 kts 329°
2026-05-07 09:35 41.39107 -121.10493 32263 ft 433 kts 329°
2026-05-07 09:35 41.44244 -121.14634 32255 ft 433 kts 329°
2026-05-07 09:36 41.49401 -121.18798 32258 ft 433 kts 329°
2026-05-07 09:36 41.54546 -121.22960 32248 ft 434 kts 329°
2026-05-07 09:37 41.59685 -121.27125 32251 ft 432 kts 329°
2026-05-07 09:37 41.64826 -121.31300 32251 ft 433 kts 329°
2026-05-07 09:38 41.69970 -121.35485 32252 ft 434 kts 328°
2026-05-07 09:38 41.75112 -121.39677 32252 ft 432 kts 328°
2026-05-07 09:39 41.80246 -121.43869 32244 ft 433 kts 328°
2026-05-07 09:39 41.85389 -121.48077 32243 ft 433 kts 328°
2026-05-07 09:40 41.90522 -121.52285 32232 ft 433 kts 329°
2026-05-07 09:40 41.95629 -121.56480 32233 ft 432 kts 328°
2026-05-07 09:41 42.00752 -121.60695 32222 ft 433 kts 328°
2026-05-07 09:41 42.05891 -121.64932 32219 ft 432 kts 328°
2026-05-07 09:42 42.10994 -121.69147 32218 ft 431 kts 328°
2026-05-07 09:42 42.16195 -121.73160 32222 ft 433 kts 333°
2026-05-07 09:43 42.21687 -121.76506 32225 ft 433 kts 336°
2026-05-07 09:43 42.27231 -121.79596 32228 ft 431 kts 337°
2026-05-07 09:44 42.32791 -121.82674 32230 ft 432 kts 337°
2026-05-07 09:44 42.38352 -121.85785 32237 ft 432 kts 336°
2026-05-07 09:45 42.43914 -121.88924 32236 ft 432 kts 336°
2026-05-07 09:45 42.49450 -121.92068 32244 ft 431 kts 336°
2026-05-07 09:46 42.54941 -121.95197 32250 ft 430 kts 336°
2026-05-07 09:46 42.60491 -121.98367 32253 ft 431 kts 336°
2026-05-07 09:47 42.65993 -122.01517 32255 ft 431 kts 336°
2026-05-07 09:47 42.71552 -122.04706 32263 ft 431 kts 336°
2026-05-07 09:48 42.77055 -122.07867 32268 ft 430 kts 336°
2026-05-07 09:48 42.82535 -122.11023 32270 ft 429 kts 336°
2026-05-07 09:49 42.88033 -122.14195 32270 ft 429 kts 336°
2026-05-07 09:49 42.93534 -122.17330 32266 ft 429 kts 338°
2026-05-07 09:50 42.99154 -122.20064 32264 ft 430 kts 341°
2026-05-07 09:50 43.04805 -122.22625 32260 ft 428 kts 341°
2026-05-07 09:51 43.10450 -122.25200 32250 ft 427 kts 341°
2026-05-07 09:51 43.16049 -122.27795 32243 ft 427 kts 341°
2026-05-07 09:52 43.21691 -122.30441 32228 ft 428 kts 340°
2026-05-07 09:52 43.27322 -122.33099 32219 ft 428 kts 340°
2026-05-07 09:53 43.32968 -122.35773 32216 ft 429 kts 340°
2026-05-07 09:53 43.38565 -122.38432 32212 ft 426 kts 340°
2026-05-07 09:54 43.44182 -122.41106 32209 ft 428 kts 340°
2026-05-07 09:54 43.49785 -122.43778 32206 ft 426 kts 340°
2026-05-07 09:55 43.55348 -122.46442 32195 ft 427 kts 340°
2026-05-07 09:55 43.60945 -122.49126 32183 ft 427 kts 340°
2026-05-07 09:56 43.66556 -122.51823 32166 ft 426 kts 340°
2026-05-07 09:56 43.72136 -122.54509 32154 ft 426 kts 340°
2026-05-07 09:57 43.77728 -122.57205 32149 ft 426 kts 340°
2026-05-07 09:57 43.83316 -122.59906 32150 ft 426 kts 340°
2026-05-07 09:58 43.88909 -122.62614 32150 ft 428 kts 340°
2026-05-07 09:58 43.94501 -122.65327 32148 ft 427 kts 339°
2026-05-07 09:58 43.97298 -122.66687 31920 ft 424 kts 339°
2026-05-07 09:59 44.00065 -122.68032 31448 ft 419 kts 339°
2026-05-07 09:59 44.02805 -122.69366 30822 ft 416 kts 339°
2026-05-07 09:59 44.05508 -122.70682 30078 ft 416 kts 339°
2026-05-07 09:59 44.08221 -122.72006 29281 ft 418 kts 339°
2026-05-07 10:00 44.10981 -122.73306 28441 ft 420 kts 340°
2026-05-07 10:00 44.13770 -122.74358 27982 ft 414 kts 346°
2026-05-07 10:00 44.16629 -122.74909 27480 ft 419 kts 353°
2026-05-07 10:00 44.19550 -122.74995 26947 ft 425 kts 358°
2026-05-07 10:01 44.22503 -122.74829 26376 ft 423 kts
2026-05-07 10:01 44.25411 -122.74542 25820 ft 419 kts
2026-05-07 10:01 44.28308 -122.74207 25260 ft 415 kts
2026-05-07 10:01 44.31150 -122.73869 24719 ft 410 kts
2026-05-07 10:02 44.33970 -122.73542 24175 ft 406 kts
2026-05-07 10:02 44.36762 -122.73229 23631 ft 405 kts
2026-05-07 10:02 44.39579 -122.72929 23086 ft 412 kts
2026-05-07 10:02 44.42429 -122.72633 22519 ft 411 kts
2026-05-07 10:03 44.45267 -122.72342 21962 ft 407 kts
2026-05-07 10:03 44.48085 -122.72055 21402 ft 403 kts
2026-05-07 10:03 44.50863 -122.71775 20851 ft 400 kts
2026-05-07 10:03 44.53580 -122.71502 20381 ft 394 kts
2026-05-07 10:04 44.56283 -122.71229 20112 ft 384 kts 360°
2026-05-07 10:04 44.58888 -122.70963 19988 ft 370 kts 360°
2026-05-07 10:04 44.61427 -122.70706 19501 ft 367 kts 360°
2026-05-07 10:04 44.63985 -122.70451 18951 ft 362 kts 360°
2026-05-07 10:05 44.66432 -122.70207 18471 ft 354 kts 359°
2026-05-07 10:05 44.68851 -122.69964 17986 ft 346 kts 359°
2026-05-07 10:05 44.71242 -122.69725 17546 ft 341 kts 359°
2026-05-07 10:05 44.73613 -122.69492 17103 ft 348 kts 359°
2026-05-07 10:06 44.76017 -122.69258 16610 ft 348 kts 359°
2026-05-07 10:06 44.78419 -122.69018 16118 ft 346 kts 359°
2026-05-07 10:06 44.80812 -122.68775 15648 ft 343 kts 360°
2026-05-07 10:06 44.83184 -122.68535 15198 ft 341 kts
2026-05-07 10:07 44.85534 -122.68298 14720 ft 340 kts
2026-05-07 10:07 44.87875 -122.68062 14235 ft 337 kts
2026-05-07 10:07 44.90225 -122.67826 13794 ft 335 kts
2026-05-07 10:07 44.92526 -122.67592 13350 ft 334 kts
2026-05-07 10:08 44.94821 -122.67361 13023 ft 323 kts
2026-05-07 10:08 44.96984 -122.67139 12926 ft 305 kts 360°
2026-05-07 10:08 44.99062 -122.66927 12580 ft 300 kts 360°
2026-05-07 10:08 45.01169 -122.66720 12103 ft 301 kts 360°
2026-05-07 10:09 45.03242 -122.66515 11712 ft 299 kts 360°
2026-05-07 10:09 45.05293 -122.66309 11315 ft 296 kts 360°
2026-05-07 10:09 45.07336 -122.66102 10937 ft 291 kts 360°
2026-05-07 10:09 45.09328 -122.65899 10573 ft 286 kts 360°
2026-05-07 10:10 45.11275 -122.65700 10197 ft 282 kts 360°
2026-05-07 10:10 45.13211 -122.65504 9896 ft 274 kts 360°
2026-05-07 10:10 45.15084 -122.65310 9680 ft 265 kts 360°
2026-05-07 10:10 45.16942 -122.65125 9300 ft 271 kts 360°
2026-05-07 10:11 45.18800 -122.64939 8946 ft 271 kts
2026-05-07 10:11 45.20681 -122.64748 8599 ft 268 kts 360°
2026-05-07 10:11 45.22539 -122.64558 8253 ft 266 kts
2026-05-07 10:11 45.24377 -122.64311 7907 ft 265 kts
2026-05-07 10:12 45.26113 -122.63519 7582 ft 268 kts 24°
2026-05-07 10:12 45.27712 -122.62116 7251 ft 268 kts 30°
2026-05-07 10:12 45.29228 -122.60624 6913 ft 266 kts 30°
2026-05-07 10:12 45.30739 -122.59171 6585 ft 264 kts 29°
2026-05-07 10:13 45.32282 -122.57745 6254 ft 262 kts 28°
2026-05-07 10:13 45.33805 -122.56368 5929 ft 260 kts 28°
2026-05-07 10:13 45.35326 -122.55006 5608 ft 258 kts 28°
2026-05-07 10:13 45.36834 -122.53655 5291 ft 256 kts 28°
2026-05-07 10:14 45.38340 -122.52301 4982 ft 254 kts 29°
2026-05-07 10:14 45.39808 -122.50977 4899 ft 250 kts 29°
2026-05-07 10:14 45.41281 -122.49649 4556 ft 252 kts 29°
2026-05-07 10:14 45.42777 -122.48305 4102 ft 256 kts 29°
2026-05-07 10:15 45.44243 -122.46973 3916 ft 247 kts 32°
2026-05-07 10:15 45.45553 -122.45519 3784 ft 231 kts 38°
2026-05-07 10:15 45.46703 -122.44022 3580 ft 217 kts 40°
2026-05-07 10:15 45.47776 -122.42587 3352 ft 206 kts 40°
2026-05-07 10:16 45.48814 -122.41229 3154 ft 199 kts 38°
2026-05-07 10:16 45.49930 -122.40164 2963 ft 189 kts 16°
2026-05-07 10:16 45.51152 -122.40134 2887 ft 173 kts 336°
2026-05-07 10:16 45.52176 -122.40997 2899 ft 172 kts 317°
2026-05-07 10:17 45.52868 -122.42378 2893 ft 172 kts 290°
2026-05-07 10:17 45.53325 -122.43969 2582 ft 175 kts 295°
2026-05-07 10:17 45.53926 -122.45467 2158 ft 173 kts 301°
2026-05-07 10:17 45.54533 -122.46935 1737 ft 172 kts 298°
2026-05-07 10:18 45.55103 -122.48412 1376 ft 167 kts 298°
2026-05-07 10:18 45.55650 -122.49804 1134 ft 156 kts 299°
2026-05-07 10:18 45.56171 -122.51125 967 ft 154 kts 299°
2026-05-07 10:18 45.56691 -122.52451 743 ft 152 kts 298°
2026-05-07 10:19 45.57203 -122.53770 563 ft 155 kts 298°
2026-05-07 10:19 45.57727 -122.55141 326 ft 158 kts 300°
2026-05-07 10:19 45.58267 -122.56477 127 ft 154 kts 299°
2026-05-07 10:19 45.58769 -122.57747 28 ft 130 kts 298°
2026-05-07 10:20 45.59126 -122.58669 28 ft 84 kts 299°
2026-05-07 10:20 45.59347 -122.59235 28 ft 48 kts 298°
2026-05-07 10:20 45.59443 -122.59502 30 ft 19 kts 275°
2026-05-07 10:20 45.59413 -122.59592 31 ft 0 kts 216°
2026-05-07 10:21 45.59391 -122.59615 31 ft 8 kts 218°
2026-05-07 10:22 45.59349 -122.59676 31 ft 8 kts 231°
2026-05-07 10:22 45.59313 -122.59740 31 ft 9 kts 231°
2026-05-07 10:22 45.59243 -122.59819 29 ft 14 kts 211°
2026-05-07 10:22 45.59162 -122.59876 28 ft 8 kts 187°
2026-05-07 10:23 45.59124 -122.59867 28 ft 5 kts 160°
2026-05-07 10:23 45.59085 -122.59862 28 ft 7 kts 195°
2026-05-07 10:23 45.59051 -122.59887 28 ft 3 kts 210°
2026-05-07 10:23 45.59047 -122.59890 28 ft 0 kts 210°